Location: *
(53.4003°S, 165.3236°W)
Time: 01:37:19
(UTC+00:00)

COSMOS 2428 - Pass Details

Date: 11 December 2023
Orbit: 841 x 859 km, 70.9° (Epoch: 24 February)

Event Time Altitude Azimuth Distance (km) Brightness Sun altitude
Rises 13:15:44 0° 218° (SW) 3,446 6.2 -7.7°
Reaches altitude 10° 13:18:31 10° 229° (SW) 2,501 5.3 -7.5°
Maximum altitude 13:23:15 27° 284° (WNW) 1,577 3.7 -7.1°
Drops below altitude 10° 13:27:57 10° 340° (NNW) 2,472 4.5 -6.7°
Enters shadow 13:29:04 - 346° (NNW) 2,836 4.8 -6.6°
